Regional Weather Roundup
Issued by NWS

Home | Current Version | Previous Version | Text Only | Print | Product List | Glossary On
Versions: 1 2 3 4 5 6 7 8 9 10 11 12 13 14 15 16 17 18 19 20 21 22 23 24 25 26 27 28 29 30 31 32 33 34 35 36 37 38 39 40 41 42 43 44 45 46 47 48 49 50
000
ASUS42 KFFC 200310
RWRGA
WEATHER ROUNDUP FOR GEORGIA
NATIONAL WEATHER SERVICE PEACHTREE CITY GA
1100 PM EDT THU OCT 19 2017

NOTE: "FAIR" INDICATES FEW OR NO CLOUDS BELOW 12,000 FEET WITH NO
SIGNIFICANT WEATHER AND/OR OBSTRUCTIONS TO VISIBILITY.

* = USE WITH CAUTION. THE STATIONS MARKED WITH AN ASTERISK MAY NOT
REPORT WEATHER SUCH AS PRECIPITATION, FOG, OR THUNDER AND ARE NOT
QUALITY CONTROLLED BY NWS.

THE REMARK "TC" DENOTES TEMPERATURE READING IN DEGREES CELSIUS.

GAZ001>058-200400-
NORTH GEORGIA

CITY           SKY/WX    TMP DP  RH WIND       PRES   REMARKS
ATLANTA        CLEAR     60  46  59 CALM      30.26R
ATHENS         CLEAR     50  48  93 CALM      30.25S
CHAMBLEE       CLEAR     50  47  89 CALM      30.26R
PEACHTREE CITY CLEAR     50  48  93 CALM      30.27R
ROME           CLEAR     51  50  96 CALM      30.26R
WEST ATLANTA   CLEAR     50  50 100 CALM      30.26R
GAINESVILLE    CLEAR     55  46  71 CALM      30.28R
CARTERSVILLE   CLEAR     48  48 100 CALM      30.28R


CITY           SKY/WX    TMP DP  RH WIND       PRES   REMARKS
DALTON*        CLEAR     48  48 100 CALM      30.28S
LAWRENCEVILLE* CLEAR     50  46  86 CALM        N/A
MARIETTA       CLEAR     53  47  81 CALM      30.26R
KENNESAW*      CLEAR     52  50  93 CALM      30.27R
CANTON*        CLEAR     52  52 100 CALM      30.28S
$$

GAZ059>098-102>109-200400-
CENTRAL GEORGIA

CITY           SKY/WX    TMP DP  RH WIND       PRES   REMARKS
AUGUSTA-BUSH   CLEAR     54  51  90 CALM      30.24R
AUGUSTA-DANIEL CLEAR     63  46  54 N6        30.25R
COLUMBUS       CLEAR     63  52  67 E5        30.23R
MACON          CLEAR     52  50  93 CALM      30.24R
ROBINS AFB     CLEAR     56  54  93 CALM      30.23R


CITY           SKY/WX    TMP DP  RH WIND       PRES   REMARKS
LAGRANGE*      CLEAR     51  51  99 CALM      30.26R
SYLVANIA*      CLEAR     56  56 100 CALM      30.24S
MILLEDGEVILLE* CLEAR     54  54 100 CALM      30.25R
$$

GAZ099>101-110>166-200400-
SOUTH GEORGIA

CITY           SKY/WX    TMP DP  RH WIND       PRES   REMARKS
SAVANNAH       CLEAR     62  60  93 N3        30.22S
VALDOSTA       CLEAR     63  59  87 NE3       30.20R
ALMA           CLEAR     60  58  92 CALM      30.22R
ST SIMONS      CLEAR     72  63  73 NE8       30.19R
FT STEWART     CLEAR     61  58  91 CALM      30.20R
ALBANY         CLEAR     62  55  77 CALM      30.23R
HUNTER AFB     CLEAR     66  62  85 NE3       30.19R
MOODY AFB      CLEAR     65  59  81 NE5       30.20R
BRUNSWICK      CLEAR     61  59  94 CALM      30.21R


CITY           SKY/WX    TMP DP  RH WIND       PRES   REMARKS
BAINBRIDGE*    CLEAR     64  59  82 CALM      30.20R
MOULTRIE*      CLEAR     66  55  68 CALM      30.21S
VIDALIA*       CLEAR     61  54  77 CALM      30.23R
WAYCROSS*      CLEAR     62  59  91 CALM      30.21R
DOUGLAS*       CLEAR     64  55  72 E6        30.23R
$$




USA.gov is the U.S. government's official web portal to all federal, state and local government web resources and services.